Time,TemperatureF,DewpointF,PressureIn,WindDirection,WindDirectionDegrees,WindSpeedMPH,WindSpeedGustMPH,Humidity,HourlyPrecipIn,Conditions,Clouds,dailyrainin,SoftwareType,DateUTC
2013-04-20 00:00:00,51.3,3.6,29.91,SE,134,0.0,0.0,14,0.00,,,0.00,Wunderground v.1.15,2013-04-20 06:00:00,
2013-04-20 00:05:00,51.2,3.5,29.90,SE,134,0.0,0.0,14,0.00,,,0.00,Wunderground v.1.15,2013-04-20 06:05:00,
2013-04-20 00:15:00,51.0,3.4,29.90,SE,135,0.0,0.0,14,0.00,,,0.00,Wunderground v.1.15,2013-04-20 06:15:00,
2013-04-20 00:20:00,50.8,3.2,29.90,SE,135,0.0,0.0,14,0.00,,,0.00,Wunderground v.1.15,2013-04-20 06:20:00,
2013-04-20 00:25:00,50.6,3.1,29.90,SE,135,0.0,0.0,14,0.00,,,0.00,Wunderground v.1.15,2013-04-20 06:25:00,
2013-04-20 00:30:00,50.5,3.0,29.90,SE,134,0.0,0.0,14,0.00,,,0.00,Wunderground v.1.15,2013-04-20 06:30:00,
2013-04-20 00:35:00,50.4,4.4,29.91,SE,135,0.0,0.0,15,0.00,,,0.00,Wunderground v.1.15,2013-04-20 06:35:00,
2013-04-20 00:45:00,49.9,4.0,29.91,SE,134,0.0,0.0,15,0.00,,,0.00,Wunderground v.1.15,2013-04-20 06:45:00,
2013-04-20 00:55:00,49.2,4.8,29.91,SE,134,0.0,0.0,16,0.00,,,0.00,Wunderground v.1.15,2013-04-20 06:55:00,
2013-04-20 01:00:00,48.8,4.5,29.91,SE,135,0.0,0.0,16,0.00,,,0.00,Wunderground v.1.15,2013-04-20 07:00:00,
2013-04-20 01:05:00,48.3,5.4,29.90,SE,134,0.0,0.0,17,0.00,,,0.00,Wunderground v.1.15,2013-04-20 07:05:00,
2013-04-20 01:15:00,47.7,3.6,29.90,SE,135,0.0,0.0,16,0.00,,,0.00,Wunderground v.1.15,2013-04-20 07:15:00,
2013-04-20 01:20:00,47.3,4.6,29.90,SE,134,0.0,0.0,17,0.00,,,0.00,Wunderground v.1.15,2013-04-20 07:20:00,
2013-04-20 01:25:00,46.9,4.3,29.90,SE,135,0.0,0.0,17,0.00,,,0.00,Wunderground v.1.15,2013-04-20 07:25:00,
2013-04-20 01:30:00,46.5,2.6,29.90,SE,134,0.0,0.0,16,0.00,,,0.00,Wunderground v.1.15,2013-04-20 07:30:00,
2013-04-20 01:35:00,46.2,2.4,29.90,SE,135,0.0,0.0,16,0.00,,,0.00,Wunderground v.1.15,2013-04-20 07:35:00,
2013-04-20 01:45:00,45.7,4.5,29.90,SE,135,0.0,0.0,18,0.00,,,0.00,Wunderground v.1.15,2013-04-20 07:45:00,
2013-04-20 01:55:00,45.1,4.0,29.90,SE,134,0.0,0.0,18,0.00,,,0.00,Wunderground v.1.15,2013-04-20 07:55:00,
2013-04-20 02:00:00,45.0,4.0,29.89,SE,135,0.0,0.0,18,0.00,,,0.00,Wunderground v.1.15,2013-04-20 08:00:00,
2013-04-20 02:05:00,44.7,3.7,29.88,SE,134,0.0,0.0,18,0.00,,,0.00,Wunderground v.1.15,2013-04-20 08:05:00,
2013-04-20 02:15:00,44.3,4.6,29.88,SE,134,0.0,0.0,19,0.00,,,0.00,Wunderground v.1.15,2013-04-20 08:15:00,
2013-04-20 02:25:00,43.9,4.2,29.88,SE,135,0.0,0.0,19,0.00,,,0.00,Wunderground v.1.15,2013-04-20 08:25:00,
2013-04-20 02:30:00,43.8,4.1,29.88,SE,134,0.0,0.0,19,0.00,,,0.00,Wunderground v.1.15,2013-04-20 08:30:00,
2013-04-20 02:35:00,43.6,4.0,29.88,SE,135,0.0,0.0,19,0.00,,,0.00,Wunderground v.1.15,2013-04-20 08:35:00,
2013-04-20 02:40:00,43.4,3.8,29.88,SE,135,0.0,0.0,19,0.00,,,0.00,Wunderground v.1.15,2013-04-20 08:40:00,
2013-04-20 02:45:00,43.2,5.8,29.88,SE,135,0.0,0.0,21,0.00,,,0.00,Wunderground v.1.15,2013-04-20 08:45:00,
2013-04-20 02:50:00,43.0,5.7,29.88,SE,135,0.0,0.0,21,0.00,,,0.00,Wunderground v.1.15,2013-04-20 08:50:00,
2013-04-20 02:55:00,42.8,5.5,29.87,SE,135,0.0,0.0,21,0.00,,,0.00,Wunderground v.1.15,2013-04-20 08:55:00,
2013-04-20 03:00:00,42.6,5.3,29.87,SE,134,0.0,0.0,21,0.00,,,0.00,Wunderground v.1.15,2013-04-20 09:00:00,
2013-04-20 03:05:00,42.4,6.2,29.88,SE,135,0.0,0.0,22,0.00,,,0.00,Wunderground v.1.15,2013-04-20 09:05:00,
2013-04-20 03:15:00,41.9,5.8,29.89,SE,135,0.0,0.0,22,0.00,,,0.00,Wunderground v.1.15,2013-04-20 09:15:00,
2013-04-20 03:20:00,41.7,5.6,29.89,SE,134,0.0,0.0,22,0.00,,,0.00,Wunderground v.1.15,2013-04-20 09:20:00,
2013-04-20 03:25:00,41.5,5.4,29.88,SE,135,0.0,0.0,22,0.00,,,0.00,Wunderground v.1.15,2013-04-20 09:25:00,
2013-04-20 03:35:00,41.1,5.1,29.89,SE,134,0.0,0.0,22,0.00,,,0.00,Wunderground v.1.15,2013-04-20 09:35:00,
2013-04-20 03:40:00,41.0,5.0,29.89,SE,134,0.0,0.0,22,0.00,,,0.00,Wunderground v.1.15,2013-04-20 09:40:00,
2013-04-20 03:45:00,40.8,4.8,29.89,SE,135,0.0,0.0,22,0.00,,,0.00,Wunderground v.1.15,2013-04-20 09:45:00,
2013-04-20 03:50:00,40.6,3.6,29.89,SE,135,0.0,0.0,21,0.00,,,0.00,Wunderground v.1.15,2013-04-20 09:50:00,
2013-04-20 03:55:00,40.4,3.5,29.89,SE,135,0.0,0.0,21,0.00,,,0.00,Wunderground v.1.15,2013-04-20 09:55:00,
2013-04-20 04:00:00,40.2,3.3,29.89,SE,135,0.0,0.0,21,0.00,,,0.00,Wunderground v.1.15,2013-04-20 10:00:00,
2013-04-20 04:05:00,40.2,4.3,29.90,SE,134,0.0,0.0,22,0.00,,,0.00,Wunderground v.1.15,2013-04-20 10:05:00,
2013-04-20 04:15:00,40.1,5.2,29.89,SE,134,0.0,0.0,23,0.00,,,0.00,Wunderground v.1.15,2013-04-20 10:15:00,
2013-04-20 04:20:00,40.0,5.1,29.90,SE,135,0.0,0.0,23,0.00,,,0.00,Wunderground v.1.15,2013-04-20 10:20:00,
2013-04-20 04:30:00,39.9,4.1,29.89,SE,135,0.0,0.0,22,0.00,,,0.00,Wunderground v.1.15,2013-04-20 10:30:00,
2013-04-20 04:40:00,39.7,4.9,29.89,SE,134,0.0,0.0,23,0.00,,,0.00,Wunderground v.1.15,2013-04-20 10:40:00,
2013-04-20 04:45:00,39.5,4.7,29.89,SE,135,0.0,0.0,23,0.00,,,0.00,Wunderground v.1.15,2013-04-20 10:45:00,
2013-04-20 04:50:00,39.4,3.6,29.89,SE,134,0.0,0.0,22,0.00,,,0.00,Wunderground v.1.15,2013-04-20 10:50:00,
2013-04-20 04:55:00,39.4,3.6,29.88,SE,135,0.0,0.0,22,0.00,,,0.00,Wunderground v.1.15,2013-04-20 10:55:00,
2013-04-20 05:00:00,39.4,3.6,29.88,SE,134,0.0,0.0,22,0.00,,,0.00,Wunderground v.1.15,2013-04-20 11:00:00,
2013-04-20 05:05:00,39.4,3.6,29.89,SE,135,0.0,0.0,22,0.00,,,0.00,Wunderground v.1.15,2013-04-20 11:05:00,
2013-04-20 05:15:00,39.4,3.6,29.90,SE,135,0.0,0.0,22,0.00,,,0.00,Wunderground v.1.15,2013-04-20 11:15:00,
2013-04-20 05:20:00,39.3,3.6,29.90,SE,135,0.0,0.0,22,0.00,,,0.00,Wunderground v.1.15,2013-04-20 11:20:00,
2013-04-20 05:25:00,39.3,3.6,29.90,SE,134,0.0,0.0,22,0.00,,,0.00,Wunderground v.1.15,2013-04-20 11:25:00,
2013-04-20 05:35:00,39.4,3.6,29.90,SE,134,0.0,0.0,22,0.00,,,0.00,Wunderground v.1.15,2013-04-20 11:35:00,
2013-04-20 05:40:00,39.4,4.6,29.90,SE,135,0.0,0.0,23,0.00,,,0.00,Wunderground v.1.15,2013-04-20 11:40:00,
2013-04-20 05:50:00,39.5,5.6,29.90,SE,135,0.0,0.0,24,0.00,,,0.00,Wunderground v.1.15,2013-04-20 11:50:00,
2013-04-20 05:55:00,39.5,5.6,29.90,SE,135,0.0,0.0,24,0.00,,,0.00,Wunderground v.1.15,2013-04-20 11:55:00,
2013-04-20 06:00:00,39.4,5.5,29.90,SE,135,0.0,0.0,24,0.00,,,0.00,Wunderground v.1.15,2013-04-20 12:00:00,
2013-04-20 06:05:00,39.3,5.5,29.91,SE,135,0.0,0.0,24,0.00,,,0.00,Wunderground v.1.15,2013-04-20 12:05:00,
2013-04-20 06:15:00,39.1,5.3,29.91,SE,134,0.0,0.0,24,0.00,,,0.00,Wunderground v.1.15,2013-04-20 12:15:00,
2013-04-20 06:20:00,39.0,5.2,29.91,SE,135,0.0,0.0,24,0.00,,,0.00,Wunderground v.1.15,2013-04-20 12:20:00,
2013-04-20 06:25:00,38.9,5.1,29.90,SE,134,0.0,0.0,24,0.00,,,0.00,Wunderground v.1.15,2013-04-20 12:25:00,
2013-04-20 06:30:00,38.7,5.8,29.90,SE,135,0.0,0.0,25,0.00,,,0.00,Wunderground v.1.15,2013-04-20 12:30:00,
2013-04-20 06:35:00,38.4,5.6,29.90,SE,135,0.0,0.0,25,0.00,,,0.00,Wunderground v.1.15,2013-04-20 12:35:00,
2013-04-20 06:45:00,38.0,6.9,29.91,SE,134,0.0,0.0,27,0.00,,,0.00,Wunderground v.1.15,2013-04-20 12:45:00,
2013-04-20 06:55:00,37.9,6.8,29.91,SE,135,0.0,0.0,27,0.00,,,0.00,Wunderground v.1.15,2013-04-20 12:55:00,
2013-04-20 07:00:00,37.8,7.6,29.91,SE,135,0.0,0.0,28,0.00,,,0.00,Wunderground v.1.15,2013-04-20 13:00:00,
2013-04-20 07:05:00,37.9,8.4,29.93,SE,135,0.0,0.0,29,0.00,,,0.00,Wunderground v.1.15,2013-04-20 13:05:00,
2013-04-20 07:15:00,38.1,7.8,29.93,SE,134,0.0,0.0,28,0.00,,,0.00,Wunderground v.1.15,2013-04-20 13:15:00,
2013-04-20 07:20:00,38.4,8.1,29.94,SE,135,0.0,0.0,28,0.00,,,0.00,Wunderground v.1.15,2013-04-20 13:20:00,
2013-04-20 07:30:00,39.4,8.9,29.93,SE,134,0.0,0.0,28,0.00,,,0.00,Wunderground v.1.15,2013-04-20 13:30:00,
2013-04-20 07:35:00,40.1,9.6,29.93,SE,135,0.0,0.0,28,0.00,,,0.00,Wunderground v.1.15,2013-04-20 13:35:00,
2013-04-20 07:40:00,41.1,9.6,29.92,SE,134,0.0,0.0,27,0.00,,,0.00,Wunderground v.1.15,2013-04-20 13:40:00,
2013-04-20 07:45:00,42.4,10.7,29.92,SE,135,0.0,0.0,27,0.00,,,0.00,Wunderground v.1.15,2013-04-20 13:45:00,
2013-04-20 07:55:00,44.9,12.0,29.91,SE,135,0.0,0.0,26,0.00,,,0.00,Wunderground v.1.15,2013-04-20 13:55:00,
2013-04-20 08:05:00,47.8,11.7,29.92,SE,134,0.0,0.0,23,0.00,,,0.00,Wunderground v.1.15,2013-04-20 14:05:00,
2013-04-20 08:15:00,50.6,10.9,29.90,SE,134,0.0,0.0,20,0.00,,,0.00,Wunderground v.1.15,2013-04-20 14:15:00,
2013-04-20 08:20:00,52.1,9.8,29.90,SE,135,0.0,0.0,18,0.00,,,0.00,Wunderground v.1.15,2013-04-20 14:20:00,
2013-04-20 08:25:00,53.5,11.0,29.90,SE,134,0.0,0.0,18,0.00,,,0.00,Wunderground v.1.15,2013-04-20 14:25:00,
2013-04-20 08:35:00,56.1,10.4,29.88,SE,135,0.0,0.0,16,0.00,,,0.00,Wunderground v.1.15,2013-04-20 14:35:00,
2013-04-20 08:40:00,57.3,10.0,29.88,SE,134,0.0,0.0,15,0.00,,,0.00,Wunderground v.1.15,2013-04-20 14:40:00,
2013-04-20 08:45:00,58.2,10.7,29.87,South,175,0.0,0.0,15,0.00,,,0.00,Wunderground v.1.15,2013-04-20 14:45:00,
2013-04-20 08:50:00,59.0,11.3,29.87,SSE,167,0.0,0.0,15,0.00,,,0.00,Wunderground v.1.15,2013-04-20 14:50:00,
2013-04-20 09:00:00,60.1,12.2,29.87,SSE,164,0.0,0.0,15,0.00,,,0.00,Wunderground v.1.15,2013-04-20 15:00:00,
2013-04-20 09:05:00,60.7,12.7,29.88,SSE,161,0.0,0.0,15,0.00,,,0.00,Wunderground v.1.15,2013-04-20 15:05:00,
2013-04-20 09:15:00,61.8,12.0,29.88,South,175,0.0,0.0,14,0.00,,,0.00,Wunderground v.1.15,2013-04-20 15:15:00,
2013-04-20 09:20:00,62.3,12.4,29.88,ESE,112,0.0,0.0,14,0.00,,,0.00,Wunderground v.1.15,2013-04-20 15:20:00,
2013-04-20 09:25:00,62.9,12.9,29.87,ESE,113,0.0,0.0,14,0.00,,,0.00,Wunderground v.1.15,2013-04-20 15:25:00,
2013-04-20 09:30:00,63.4,13.3,29.87,ESE,113,0.0,0.0,14,0.00,,,0.00,Wunderground v.1.15,2013-04-20 15:30:00,
2013-04-20 09:35:00,63.9,13.7,29.87,ESE,113,0.0,0.0,14,0.00,,,0.00,Wunderground v.1.15,2013-04-20 15:35:00,
2013-04-20 09:45:00,64.9,12.8,29.85,ESE,111,0.0,2.0,13,0.00,,,0.00,Wunderground v.1.15,2013-04-20 15:45:00,
2013-04-20 09:50:00,65.4,14.9,29.85,ESE,111,0.0,0.0,14,0.00,,,0.00,Wunderground v.1.15,2013-04-20 15:50:00,
2013-04-20 09:55:00,65.9,15.3,29.85,South,177,0.0,0.0,14,0.00,,,0.00,Wunderground v.1.15,2013-04-20 15:55:00,
2013-04-20 10:00:00,66.5,14.1,29.85,SSE,150,0.0,0.0,13,0.00,,,0.00,Wunderground v.1.15,2013-04-20 16:00:00,
2013-04-20 10:10:00,67.3,14.7,29.85,SSW,199,0.0,0.0,13,0.00,,,0.00,Wunderground v.1.15,2013-04-20 16:10:00,
2013-04-20 10:20:00,67.9,13.3,29.84,SE,126,0.0,0.0,12,0.00,,,0.00,Wunderground v.1.15,2013-04-20 16:20:00,
2013-04-20 10:25:00,68.3,13.7,29.84,ESE,118,0.0,0.0,12,0.00,,,0.00,Wunderground v.1.15,2013-04-20 16:25:00,
2013-04-20 10:30:00,68.5,15.7,29.83,SSW,199,0.0,0.0,13,0.00,,,0.00,Wunderground v.1.15,2013-04-20 16:30:00,
2013-04-20 10:35:00,68.9,16.0,29.83,SSW,196,0.0,0.0,13,0.00,,,0.00,Wunderground v.1.15,2013-04-20 16:35:00,
2013-04-20 10:40:00,69.2,14.4,29.83,WSW,242,0.0,0.0,12,0.00,,,0.00,Wunderground v.1.15,2013-04-20 16:40:00,
2013-04-20 10:50:00,69.2,14.4,29.83,SE,125,1.0,1.0,12,0.00,,,0.00,Wunderground v.1.15,2013-04-20 16:50:00,
2013-04-20 10:55:00,69.3,14.4,29.83,West,271,0.0,1.0,12,0.00,,,0.00,Wunderground v.1.15,2013-04-20 16:55:00,
2013-04-20 11:00:00,69.5,14.6,29.83,SE,125,0.0,0.0,12,0.00,,,0.00,Wunderground v.1.15,2013-04-20 17:00:00,
2013-04-20 11:05:00,69.9,14.9,29.83,WSW,244,0.0,0.0,12,0.00,,,0.00,Wunderground v.1.15,2013-04-20 17:05:00,
2013-04-20 11:15:00,70.7,15.5,29.82,West,272,0.0,1.0,12,0.00,,,0.00,Wunderground v.1.15,2013-04-20 17:15:00,
2013-04-20 11:20:00,71.0,15.8,29.82,SE,140,0.0,0.0,12,0.00,,,0.00,Wunderground v.1.15,2013-04-20 17:20:00,
2013-04-20 11:30:00,71.9,14.5,29.81,WSW,244,0.0,0.0,11,0.00,,,0.00,Wunderground v.1.15,2013-04-20 17:30:00,
2013-04-20 11:35:00,72.3,16.8,29.81,WNW,290,0.0,0.0,12,0.00,,,0.00,Wunderground v.1.15,2013-04-20 17:35:00,
2013-04-20 11:40:00,72.7,15.1,29.80,SE,132,0.0,0.0,11,0.00,,,0.00,Wunderground v.1.15,2013-04-20 17:40:00,
2013-04-20 11:45:00,73.0,15.3,29.80,ESE,105,0.0,0.0,11,0.00,,,0.00,Wunderground v.1.15,2013-04-20 17:45:00,
2013-04-20 11:50:00,73.6,15.8,29.79,SSE,161,0.0,1.0,11,0.00,,,0.00,Wunderground v.1.15,2013-04-20 17:50:00,
2013-04-20 11:55:00,73.8,15.9,29.79,East,89,0.0,1.0,11,0.00,,,0.00,Wunderground v.1.15,2013-04-20 17:55:00,
2013-04-20 12:00:00,74.1,16.2,29.79,West,276,0.0,2.0,11,0.00,,,0.00,Wunderground v.1.15,2013-04-20 18:00:00,
2013-04-20 12:05:00,74.3,16.3,29.80,SW,219,1.0,2.0,11,0.00,,,0.00,Wunderground v.1.15,2013-04-20 18:05:00,
2013-04-20 12:15:00,74.8,16.7,29.79,ESE,102,1.0,1.0,11,0.00,,,0.00,Wunderground v.1.15,2013-04-20 18:15:00,
2013-04-20 12:20:00,75.2,17.0,29.78,West,267,0.0,0.0,11,0.00,,,0.00,Wunderground v.1.15,2013-04-20 18:20:00,
2013-04-20 12:25:00,75.5,15.1,29.78,SE,132,0.0,0.0,10,0.00,,,0.00,Wunderground v.1.15,2013-04-20 18:25:00,
2013-04-20 12:35:00,76.0,15.4,29.77,ESE,121,1.0,1.0,10,0.00,,,0.00,Wunderground v.1.15,2013-04-20 18:35:00,
2013-04-20 12:40:00,76.0,15.4,29.77,West,268,1.0,1.0,10,0.00,,,0.00,Wunderground v.1.15,2013-04-20 18:40:00,
2013-04-20 12:45:00,76.3,13.3,29.77,ESE,113,0.0,1.0,9,0.00,,,0.00,Wunderground v.1.15,2013-04-20 18:45:00,
2013-04-20 12:50:00,76.4,13.3,29.76,SE,134,1.0,1.0,9,0.00,,,0.00,Wunderground v.1.15,2013-04-20 18:50:00,
2013-04-20 12:55:00,76.5,13.4,29.76,ENE,73,1.0,1.0,9,0.00,,,0.00,Wunderground v.1.15,2013-04-20 18:55:00,
2013-04-20 13:05:00,77.7,16.7,29.76,WSW,244,0.0,1.0,10,0.00,,,0.00,Wunderground v.1.15,2013-04-20 19:05:00,
2013-04-20 13:15:00,78.0,17.0,29.76,WSW,248,1.0,1.0,10,0.00,,,0.00,Wunderground v.1.15,2013-04-20 19:15:00,
2013-04-20 13:20:00,77.9,16.9,29.76,WNW,302,1.0,2.0,10,0.00,,,0.00,Wunderground v.1.15,2013-04-20 19:20:00,
2013-04-20 13:25:00,77.9,16.9,29.76,NW,313,1.0,2.0,10,0.00,,,0.00,Wunderground v.1.15,2013-04-20 19:25:00,
2013-04-20 13:30:00,78.3,17.2,29.76,North,360,1.0,1.0,10,0.00,,,0.00,Wunderground v.1.15,2013-04-20 19:30:00,
2013-04-20 13:40:00,79.1,17.8,29.75,NW,323,0.0,1.0,10,0.00,,,0.00,Wunderground v.1.15,2013-04-20 19:40:00,
2013-04-20 13:45:00,79.2,15.5,29.74,West,273,0.0,1.0,9,0.00,,,0.00,Wunderground v.1.15,2013-04-20 19:45:00,
2013-04-20 13:50:00,79.2,17.9,29.74,WSW,240,1.0,1.0,10,0.00,,,0.00,Wunderground v.1.15,2013-04-20 19:50:00,
2013-04-20 13:55:00,79.2,17.9,29.73,West,273,0.0,1.0,10,0.00,,,0.00,Wunderground v.1.15,2013-04-20 19:55:00,
2013-04-20 14:00:00,79.0,17.7,29.73,West,266,1.0,1.0,10,0.00,,,0.00,Wunderground v.1.15,2013-04-20 20:00:00,
2013-04-20 14:05:00,79.2,17.9,29.74,West,277,1.0,1.0,10,0.00,,,0.00,Wunderground v.1.15,2013-04-20 20:05:00,
2013-04-20 14:15:00,79.4,18.0,29.74,WNW,289,2.0,3.0,10,0.00,,,0.00,Wunderground v.1.15,2013-04-20 20:15:00,
2013-04-20 14:20:00,79.6,18.2,29.74,NW,313,2.0,2.0,10,0.00,,,0.00,Wunderground v.1.15,2013-04-20 20:20:00,
2013-04-20 14:25:00,79.9,18.4,29.74,NW,324,1.0,2.0,10,0.00,,,0.00,Wunderground v.1.15,2013-04-20 20:25:00,
2013-04-20 14:30:00,80.1,16.1,29.74,ESE,110,0.0,0.0,9,0.00,,,0.00,Wunderground v.1.15,2013-04-20 20:30:00,
2013-04-20 14:35:00,80.1,18.6,29.73,SE,138,0.0,0.0,10,0.00,,,0.00,Wunderground v.1.15,2013-04-20 20:35:00,
2013-04-20 14:45:00,80.7,21.3,29.72,WNW,290,0.0,0.0,11,0.00,,,0.00,Wunderground v.1.15,2013-04-20 20:45:00,
2013-04-20 14:50:00,80.8,19.1,29.72,ESE,119,0.0,0.0,10,0.00,,,0.00,Wunderground v.1.15,2013-04-20 20:50:00,
2013-04-20 15:00:00,81.6,17.3,29.70,ESE,105,0.0,0.0,9,0.00,,,0.00,Wunderground v.1.15,2013-04-20 21:00:00,
2013-04-20 15:05:00,81.8,19.9,29.71,WNW,285,1.0,3.0,10,0.00,,,0.00,Wunderground v.1.15,2013-04-20 21:05:00,
2013-04-20 15:15:00,82.0,17.6,29.70,ESE,107,1.0,1.0,9,0.00,,,0.00,Wunderground v.1.15,2013-04-20 21:15:00,
2013-04-20 15:20:00,82.1,17.6,29.70,SE,138,0.0,3.0,9,0.00,,,0.00,Wunderground v.1.15,2013-04-20 21:20:00,
2013-04-20 15:25:00,81.7,17.3,29.69,WSW,255,1.0,3.0,9,0.00,,,0.00,Wunderground v.1.15,2013-04-20 21:25:00,
2013-04-20 15:30:00,81.5,17.2,29.69,SSW,200,1.0,1.0,9,0.00,,,0.00,Wunderground v.1.15,2013-04-20 21:30:00,
2013-04-20 15:35:00,81.4,17.1,29.70,SW,222,1.0,1.0,9,0.00,,,0.00,Wunderground v.1.15,2013-04-20 21:35:00,
2013-04-20 15:40:00,81.3,17.0,29.69,SE,138,1.0,2.0,9,0.00,,,0.00,Wunderground v.1.15,2013-04-20 21:40:00,
2013-04-20 15:45:00,81.1,16.9,29.69,North,360,1.0,2.0,9,0.00,,,0.00,Wunderground v.1.15,2013-04-20 21:45:00,
2013-04-20 15:50:00,81.2,19.4,29.69,SW,229,1.0,1.0,10,0.00,,,0.00,Wunderground v.1.15,2013-04-20 21:50:00,
2013-04-20 15:55:00,81.4,19.6,29.68,ESE,105,1.0,1.0,10,0.00,,,0.00,Wunderground v.1.15,2013-04-20 21:55:00,
2013-04-20 16:00:00,81.0,19.3,29.67,East,96,1.0,1.0,10,0.00,,,0.00,Wunderground v.1.15,2013-04-20 22:00:00,
2013-04-20 16:10:00,80.8,19.1,29.67,ESE,103,2.0,4.0,10,0.00,,,0.00,Wunderground v.1.15,2013-04-20 22:10:00,
2013-04-20 16:15:00,80.5,18.9,29.67,WSW,251,3.0,6.0,10,0.00,,,0.00,Wunderground v.1.15,2013-04-20 22:15:00,
2013-04-20 16:20:00,80.3,21.0,29.68,West,275,3.0,3.0,11,0.00,,,0.00,Wunderground v.1.15,2013-04-20 22:20:00,
2013-04-20 16:30:00,80.0,18.5,29.67,WSW,253,3.0,3.0,10,0.00,,,0.00,Wunderground v.1.15,2013-04-20 22:30:00,
2013-04-20 16:35:00,80.1,20.8,29.67,North,360,2.0,7.0,11,0.00,,,0.00,Wunderground v.1.15,2013-04-20 22:35:00,
2013-04-20 16:40:00,80.0,20.7,29.68,North,360,4.0,6.0,11,0.00,,,0.00,Wunderground v.1.15,2013-04-20 22:40:00,
2013-04-20 16:45:00,79.9,20.7,29.68,North,360,4.0,6.0,11,0.00,,,0.00,Wunderground v.1.15,2013-04-20 22:45:00,
2013-04-20 16:50:00,79.8,20.6,29.68,WNW,288,3.0,4.0,11,0.00,,,0.00,Wunderground v.1.15,2013-04-20 22:50:00,
2013-04-20 17:00:00,79.5,18.1,29.67,WSW,255,3.0,5.0,10,0.00,,,0.00,Wunderground v.1.15,2013-04-20 23:00:00,
2013-04-20 17:05:00,79.3,20.2,29.67,WSW,256,4.0,5.0,11,0.00,,,0.00,Wunderground v.1.15,2013-04-20 23:05:00,
2013-04-20 17:15:00,78.8,19.8,29.67,West,261,2.0,5.0,11,0.00,,,0.00,Wunderground v.1.15,2013-04-20 23:15:00,
2013-04-20 17:25:00,78.7,19.7,29.67,WSW,252,4.0,5.0,11,0.00,,,0.00,Wunderground v.1.15,2013-04-20 23:25:00,
2013-04-20 17:35:00,78.5,19.6,29.68,North,360,4.0,4.0,11,0.00,,,0.00,Wunderground v.1.15,2013-04-20 23:35:00,
2013-04-20 17:40:00,78.3,19.4,29.68,SSW,210,4.0,5.0,11,0.00,,,0.00,Wunderground v.1.15,2013-04-20 23:40:00,
2013-04-20 17:45:00,78.2,19.3,29.69,WSW,254,4.0,5.0,11,0.00,,,0.00,Wunderground v.1.15,2013-04-20 23:45:00,
2013-04-20 17:50:00,78.2,19.3,29.69,West,271,2.0,2.0,11,0.00,,,0.00,Wunderground v.1.15,2013-04-20 23:50:00,
2013-04-20 17:55:00,78.2,19.3,29.69,WSW,249,3.0,3.0,11,0.00,,,0.00,Wunderground v.1.15,2013-04-20 23:55:00,
2013-04-20 18:00:00,78.2,19.3,29.69,West,263,4.0,5.0,11,0.00,,,0.00,Wunderground v.1.15,2013-04-21 00:00:00,
2013-04-20 18:05:00,77.9,19.1,29.70,West,275,4.0,5.0,11,0.00,,,0.00,Wunderground v.1.15,2013-04-21 00:05:00,
2013-04-20 18:15:00,77.5,18.8,29.70,SW,234,3.0,3.0,11,0.00,,,0.00,Wunderground v.1.15,2013-04-21 00:15:00,
2013-04-20 18:20:00,77.3,18.7,29.71,WSW,252,4.0,4.0,11,0.00,,,0.00,Wunderground v.1.15,2013-04-21 00:20:00,
2013-04-20 18:25:00,77.2,20.6,29.70,WNW,295,4.0,4.0,12,0.00,,,0.00,Wunderground v.1.15,2013-04-21 00:25:00,
2013-04-20 18:35:00,77.1,20.5,29.70,WSW,244,3.0,5.0,12,0.00,,,0.00,Wunderground v.1.15,2013-04-21 00:35:00,
2013-04-20 18:40:00,76.9,20.4,29.71,WSW,245,4.0,9.0,12,0.00,,,0.00,Wunderground v.1.15,2013-04-21 00:40:00,
2013-04-20 18:50:00,76.4,20.0,29.71,WNW,284,5.0,5.0,12,0.00,,,0.00,Wunderground v.1.15,2013-04-21 00:50:00,
2013-04-20 18:55:00,76.1,19.8,29.71,WSW,252,4.0,10.0,12,0.00,,,0.00,Wunderground v.1.15,2013-04-21 00:55:00,
2013-04-20 19:00:00,75.8,19.5,29.71,NW,322,4.0,4.0,12,0.00,,,0.00,Wunderground v.1.15,2013-04-21 01:00:00,
2013-04-20 19:05:00,75.5,19.3,29.68,North,360,4.0,4.0,12,0.00,,,0.00,Wunderground v.1.15,2013-04-21 01:05:00,
2013-04-20 19:15:00,75.0,18.9,29.69,North,360,3.0,7.0,12,0.00,,,0.00,Wunderground v.1.15,2013-04-21 01:15:00,
2013-04-20 19:20:00,74.6,18.6,29.69,WNW,283,3.0,3.0,12,0.00,,,0.00,Wunderground v.1.15,2013-04-21 01:20:00,
2013-04-20 19:25:00,74.2,20.1,29.70,West,262,3.0,3.0,13,0.00,,,0.00,Wunderground v.1.15,2013-04-21 01:25:00,
2013-04-20 19:30:00,73.9,19.9,29.70,WNW,291,3.0,3.0,13,0.00,,,0.00,Wunderground v.1.15,2013-04-21 01:30:00,
2013-04-20 19:35:00,73.5,19.6,29.70,West,279,2.0,3.0,13,0.00,,,0.00,Wunderground v.1.15,2013-04-21 01:35:00,
2013-04-20 19:40:00,73.2,19.4,29.72,WNW,290,1.0,1.0,13,0.00,,,0.00,Wunderground v.1.15,2013-04-21 01:40:00,
2013-04-20 19:50:00,72.5,20.5,29.72,WNW,292,2.0,2.0,14,0.00,,,0.00,Wunderground v.1.15,2013-04-21 01:50:00,
2013-04-20 19:55:00,72.2,20.3,29.72,WNW,292,1.0,2.0,14,0.00,,,0.00,Wunderground v.1.15,2013-04-21 01:55:00,
2013-04-20 20:05:00,71.6,19.8,29.67,WNW,283,1.0,1.0,14,0.00,,,0.00,Wunderground v.1.15,2013-04-21 02:05:00,
2013-04-20 20:15:00,71.2,21.1,29.69,West,260,2.0,6.0,15,0.00,,,0.00,Wunderground v.1.15,2013-04-21 02:15:00,
2013-04-20 20:25:00,70.8,20.8,29.69,West,280,1.0,6.0,15,0.00,,,0.00,Wunderground v.1.15,2013-04-21 02:25:00,
2013-04-20 20:30:00,70.6,20.7,29.70,North,360,1.0,1.0,15,0.00,,,0.00,Wunderground v.1.15,2013-04-21 02:30:00,
2013-04-20 20:35:00,70.4,20.5,29.71,NNW,334,1.0,1.0,15,0.00,,,0.00,Wunderground v.1.15,2013-04-21 02:35:00,
2013-04-20 20:40:00,70.2,20.3,29.72,WNW,299,1.0,1.0,15,0.00,,,0.00,Wunderground v.1.15,2013-04-21 02:40:00,
2013-04-20 20:45:00,69.9,20.1,29.72,NNW,329,0.0,1.0,15,0.00,,,0.00,Wunderground v.1.15,2013-04-21 02:45:00,
2013-04-20 20:55:00,69.4,19.7,29.74,NNW,347,0.0,1.0,15,0.00,,,0.00,Wunderground v.1.15,2013-04-21 02:55:00,
2013-04-20 21:00:00,69.2,19.5,29.74,West,273,0.0,5.0,15,0.00,,,0.00,Wunderground v.1.15,2013-04-21 03:00:00,
2013-04-20 21:10:00,69.0,19.4,29.71,WNW,298,2.0,2.0,15,0.00,,,0.00,Wunderground v.1.15,2013-04-21 03:10:00,
2013-04-20 21:15:00,69.1,19.5,29.72,North,360,1.0,2.0,15,0.00,,,0.00,Wunderground v.1.15,2013-04-21 03:15:00,
2013-04-20 21:20:00,69.1,19.5,29.72,WNW,296,1.0,3.0,15,0.00,,,0.00,Wunderground v.1.15,2013-04-21 03:20:00,
2013-04-20 21:30:00,69.0,19.4,29.73,WNW,298,0.0,0.0,15,0.00,,,0.00,Wunderground v.1.15,2013-04-21 03:30:00,
2013-04-20 21:35:00,68.9,19.3,29.73,WNW,290,0.0,0.0,15,0.00,,,0.00,Wunderground v.1.15,2013-04-21 03:35:00,
2013-04-20 21:40:00,68.8,19.2,29.73,West,275,0.0,0.0,15,0.00,,,0.00,Wunderground v.1.15,2013-04-21 03:40:00,
2013-04-20 21:45:00,68.7,19.1,29.73,WNW,287,1.0,1.0,15,0.00,,,0.00,Wunderground v.1.15,2013-04-21 03:45:00,
2013-04-20 21:50:00,68.5,19.0,29.74,West,281,0.0,0.0,15,0.00,,,0.00,Wunderground v.1.15,2013-04-21 03:50:00,
2013-04-20 21:55:00,68.3,18.8,29.75,NW,325,0.0,0.0,15,0.00,,,0.00,Wunderground v.1.15,2013-04-21 03:55:00,
2013-04-20 22:05:00,68.0,18.6,29.74,WNW,284,0.0,0.0,15,0.00,,,0.00,Wunderground v.1.15,2013-04-21 04:05:00,
2013-04-20 22:15:00,67.6,19.8,29.74,West,281,0.0,0.0,16,0.00,,,0.00,Wunderground v.1.15,2013-04-21 04:15:00,
2013-04-20 22:20:00,67.4,19.6,29.75,West,273,0.0,0.0,16,0.00,,,0.00,Wunderground v.1.15,2013-04-21 04:20:00,
2013-04-20 22:25:00,67.2,19.4,29.75,West,273,0.0,0.0,16,0.00,,,0.00,Wunderground v.1.15,2013-04-21 04:25:00,
2013-04-20 22:30:00,67.0,19.3,29.75,West,273,0.0,0.0,16,0.00,,,0.00,Wunderground v.1.15,2013-04-21 04:30:00,
2013-04-20 22:40:00,66.4,18.8,29.75,NW,316,0.0,3.0,16,0.00,,,0.00,Wunderground v.1.15,2013-04-21 04:40:00,
2013-04-20 22:45:00,66.1,18.5,29.76,NW,322,0.0,3.0,16,0.00,,,0.00,Wunderground v.1.15,2013-04-21 04:45:00,
2013-04-20 22:50:00,65.8,18.3,29.76,NW,323,0.0,0.0,16,0.00,,,0.00,Wunderground v.1.15,2013-04-21 04:50:00,
2013-04-20 22:55:00,65.5,18.1,29.76,NNW,340,0.0,0.0,16,0.00,,,0.00,Wunderground v.1.15,2013-04-21 04:55:00,
2013-04-20 23:00:00,65.2,17.8,29.77,NNW,340,0.0,0.0,16,0.00,,,0.00,Wunderground v.1.15,2013-04-21 05:00:00,
2013-04-20 23:05:00,64.8,18.9,29.75,North,360,0.0,0.0,17,0.00,,,0.00,Wunderground v.1.15,2013-04-21 05:05:00,
2013-04-20 23:15:00,64.1,18.3,29.76,North,360,0.0,0.0,17,0.00,,,0.00,Wunderground v.1.15,2013-04-21 05:15:00,
2013-04-20 23:25:00,63.5,17.8,29.76,North,360,0.0,0.0,17,0.00,,,0.00,Wunderground v.1.15,2013-04-21 05:25:00,
2013-04-20 23:30:00,63.2,17.6,29.77,North,360,0.0,0.0,17,0.00,,,0.00,Wunderground v.1.15,2013-04-21 05:30:00,
2013-04-20 23:35:00,62.8,17.3,29.77,North,360,0.0,0.0,17,0.00,,,0.00,Wunderground v.1.15,2013-04-21 05:35:00,
2013-04-20 23:45:00,61.9,17.9,29.77,North,360,0.0,0.0,18,0.00,,,0.00,Wunderground v.1.15,2013-04-21 05:45:00,
2013-04-20 23:50:00,61.5,17.5,29.77,North,360,0.0,0.0,18,0.00,,,0.00,Wunderground v.1.15,2013-04-21 05:50:00,
2013-04-20 23:55:00,61.0,17.1,29.78,North,360,0.0,0.0,18,0.00,,,0.00,Wunderground v.1.15,2013-04-21 05:55:00,